Time,TemperatureF,DewpointF,PressureIn,WindDirection,WindDirectionDegrees,WindSpeedMPH,WindSpeedGustMPH,Humidity,HourlyPrecipIn,Conditions,Clouds,dailyrainin,SoftwareType,DateUTC
2013-04-22 00:30:00,73.0,-99.9,-100.00,SSW,199,2.0,2.0,-999,-99.99,,,-99.99,,2013-04-22 06:30:00,
2013-04-22 01:20:00,64.0,-99.9,-100.00,SSW,196,0.0,4.0,-999,-99.99,,,-99.99,,2013-04-22 07:20:00,
2013-04-22 01:22:00,73.0,-99.9,-100.00,SSW,199,2.0,2.0,-999,-99.99,,,-99.99,,2013-04-22 07:22:00,
2013-04-22 01:50:00,63.0,-99.9,-100.00,NNE,30,4.0,6.0,-999,-99.99,,,-99.99,,2013-04-22 07:50:00,
2013-04-22 02:02:00,64.0,-99.9,-100.00,SSW,196,0.0,4.0,-999,-99.99,,,-99.99,,2013-04-22 08:02:00,
2013-04-22 02:11:00,64.0,-99.9,-100.00,SSW,196,0.0,4.0,-999,-99.99,,,-99.99,,2013-04-22 08:11:00,
2013-04-22 02:32:00,63.0,-99.9,-100.00,NNE,30,4.0,6.0,-999,-99.99,,,-99.99,,2013-04-22 08:32:00,
2013-04-22 02:42:00,63.0,-99.9,-100.00,NNE,30,4.0,6.0,-999,-99.99,,,-99.99,,2013-04-22 08:42:00,
2013-04-22 03:33:00,62.0,-99.9,-100.00,SW,215,4.0,5.0,-999,-99.99,,,-99.99,,2013-04-22 09:33:00,
2013-04-22 03:42:00,62.0,-99.9,-100.00,SW,215,4.0,5.0,-999,-99.99,,,-99.99,,2013-04-22 09:42:00,
2013-04-22 03:53:00,62.0,-99.9,-100.00,SW,215,4.0,5.0,-999,-99.99,,,-99.99,,2013-04-22 09:53:00,
2013-04-22 04:00:00,63.0,-99.9,-100.00,WNW,293,1.0,1.0,-999,-99.99,,,-99.99,,2013-04-22 10:00:00,
2013-04-22 04:33:00,62.0,-99.9,-100.00,NNE,17,3.0,4.0,-999,-99.99,,,-99.99,,2013-04-22 10:33:00,
2013-04-22 04:42:00,62.0,-99.9,-100.00,NNE,17,3.0,4.0,-999,-99.99,,,-99.99,,2013-04-22 10:42:00,
2013-04-22 04:53:00,63.0,-99.9,-100.00,WNW,293,1.0,1.0,-999,-99.99,,,-99.99,,2013-04-22 10:53:00,
2013-04-22 05:10:00,62.0,-99.9,-100.00,NNE,22,3.0,4.0,-999,-99.99,,,-99.99,,2013-04-22 11:10:00,
2013-04-22 05:53:00,62.0,-99.9,-100.00,NNE,22,3.0,4.0,-999,-99.99,,,-99.99,,2013-04-22 11:53:00,
2013-04-22 06:02:00,62.0,-99.9,-100.00,NNE,22,3.0,4.0,-999,-99.99,,,-99.99,,2013-04-22 12:02:00,
2013-04-22 08:33:00,71.0,-99.9,-100.00,SSE,157,2.0,3.0,-999,-99.99,,,-99.99,,2013-04-22 14:33:00,
2013-04-22 08:42:00,71.0,-99.9,-100.00,SSE,157,2.0,3.0,-999,-99.99,,,-99.99,,2013-04-22 14:42:00,
2013-04-22 08:52:00,71.0,-99.9,-100.00,SSE,157,2.0,3.0,-999,-99.99,,,-99.99,,2013-04-22 14:52:00,
2013-04-22 09:30:00,79.0,-99.9,-100.00,East,96,3.0,7.0,-999,-99.99,,,-99.99,,2013-04-22 15:30:00,
2013-04-22 10:23:00,79.0,-99.9,-100.00,East,96,3.0,7.0,-999,-99.99,,,-99.99,,2013-04-22 16:23:00,
2013-04-22 11:32:00,84.0,-99.9,-100.00,SW,228,3.0,5.0,-999,-99.99,,,-99.99,,2013-04-22 17:32:00,
2013-04-22 11:43:00,84.0,-99.9,-100.00,SW,228,3.0,5.0,-999,-99.99,,,-99.99,,2013-04-22 17:43:00,
2013-04-22 11:52:00,84.0,-99.9,-100.00,SW,228,3.0,5.0,-999,-99.99,,,-99.99,,2013-04-22 17:52:00,
2013-04-22 12:02:00,83.0,-99.9,-100.00,West,259,2.0,5.0,-999,-99.99,,,-99.99,,2013-04-22 18:02:00,
2013-04-22 12:12:00,83.0,-99.9,-100.00,West,259,2.0,5.0,-999,-99.99,,,-99.99,,2013-04-22 18:12:00,
2013-04-22 13:02:00,85.0,-99.9,-100.00,SW,236,7.0,9.0,-999,-99.99,,,-99.99,,2013-04-22 19:02:00,
2013-04-22 13:12:00,85.0,-99.9,-100.00,SW,236,7.0,9.0,-999,-99.99,,,-99.99,,2013-04-22 19:12:00,
2013-04-22 13:22:00,86.0,-99.9,-100.00,WSW,238,3.0,5.0,-999,-99.99,,,-99.99,,2013-04-22 19:22:00,
2013-04-22 13:32:00,86.0,-99.9,-100.00,WSW,238,3.0,5.0,-999,-99.99,,,-99.99,,2013-04-22 19:32:00,
2013-04-22 14:40:00,88.0,-99.9,-100.00,NNW,344,2.0,7.0,-999,-99.99,,,-99.99,,2013-04-22 20:40:00,
2013-04-22 15:20:00,90.0,-99.9,-100.00,SW,227,5.0,8.0,-999,-99.99,,,-99.99,,2013-04-22 21:20:00,
2013-04-22 15:22:00,88.0,-99.9,-100.00,NNW,344,2.0,7.0,-999,-99.99,,,-99.99,,2013-04-22 21:22:00,
2013-04-22 15:33:00,88.0,-99.9,-100.00,NNW,344,2.0,7.0,-999,-99.99,,,-99.99,,2013-04-22 21:33:00,
2013-04-22 16:03:00,90.0,-99.9,-100.00,SW,227,5.0,8.0,-999,-99.99,,,-99.99,,2013-04-22 22:03:00,
2013-04-22 16:10:00,88.0,-99.9,-100.00,West,276,7.0,7.0,-999,-99.99,,,-99.99,,2013-04-22 22:10:00,
2013-04-22 16:12:00,90.0,-99.9,-100.00,SW,227,5.0,8.0,-999,-99.99,,,-99.99,,2013-04-22 22:12:00,
2013-04-22 16:52:00,88.0,-99.9,-100.00,West,276,7.0,7.0,-999,-99.99,,,-99.99,,2013-04-22 22:52:00,
2013-04-22 17:02:00,88.0,-99.9,-100.00,West,276,7.0,7.0,-999,-99.99,,,-99.99,,2013-04-22 23:02:00,
2013-04-22 17:52:00,90.0,-99.9,-100.00,SSW,200,1.0,8.0,-999,-99.99,,,-99.99,,2013-04-22 23:52:00,
2013-04-22 18:02:00,90.0,-99.9,-100.00,SSW,200,1.0,8.0,-999,-99.99,,,-99.99,,2013-04-23 00:02:00,
2013-04-22 19:01:00,89.0,-99.9,-100.00,SW,235,3.0,7.0,-999,-99.99,,,-99.99,,2013-04-23 01:01:00,
2013-04-22 19:11:00,89.0,-99.9,-100.00,SW,235,3.0,7.0,-999,-99.99,,,-99.99,,2013-04-23 01:11:00,
2013-04-22 19:50:00,85.0,-99.9,-100.00,WNW,290,3.0,6.0,-999,-99.99,,,-99.99,,2013-04-23 01:50:00,
2013-04-22 20:33:00,85.0,-99.9,-100.00,WNW,290,3.0,6.0,-999,-99.99,,,-99.99,,2013-04-23 02:33:00,
2013-04-22 20:42:00,85.0,-99.9,-100.00,WNW,290,3.0,6.0,-999,-99.99,,,-99.99,,2013-04-23 02:42:00,
2013-04-22 21:10:00,83.0,-99.9,-100.00,WNW,294,2.0,3.0,-999,-99.99,,,-99.99,,2013-04-23 03:10:00,
2013-04-22 21:53:00,83.0,-99.9,-100.00,WNW,294,2.0,3.0,-999,-99.99,,,-99.99,,2013-04-23 03:53:00,
2013-04-22 22:03:00,83.0,-99.9,-100.00,WNW,294,2.0,3.0,-999,-99.99,,,-99.99,,2013-04-23 04:03:00,